Location: Unspecified
(0.0000°N, 0.0000°E)
Time: 02:54:31
(UTC+00:00)

N. Korean satellite - Pass Details

Date: 25 January 2023
Orbit: 408 x 444 km, 97.3° (Epoch: 27 January)

Event Time Altitude Azimuth Distance (km) Brightness Sun altitude
Rises 04:15:07 0° 41° (NE) 2,368 10.3 -27.5°
Reaches altitude 10° 04:17:49 10° 68° (ENE) 1,516 9.6 -26.9°
Maximum altitude 04:19:37 14° 102° (ESE) 1,295 9.6 -26.5°
Drops below altitude 10° 04:21:26 10° 135° (SE) 1,532 9.9 -26.1°
Sets 04:24:11 0° 161° (SSE) 2,412 10.7 -25.4°
